TimeEST,TemperatureF,Dew PointF,Humidity,Sea Level PressureIn,VisibilityMPH,Wind Direction,Wind SpeedMPH,Gust SpeedMPH,PrecipitationIn,Events,Conditions,WindDirDegrees,DateUTC
12:52 AM,41.0,30.9,67,30.24,10.0,North,3.5,-,N/A,,Clear,360,2012-11-22 05:52:00
1:52 AM,37.0,30.0,76,30.25,10.0,North,3.5,-,N/A,,Clear,360,2012-11-22 06:52:00
2:52 AM,37.0,30.9,79,30.25,10.0,North,4.6,-,N/A,,Clear,10,2012-11-22 07:52:00
3:52 AM,36.0,30.0,79,30.24,10.0,North,5.8,-,N/A,,Clear,350,2012-11-22 08:52:00
4:52 AM,37.0,30.0,76,30.25,10.0,NNE,4.6,-,N/A,,Clear,20,2012-11-22 09:52:00
5:52 AM,39.0,30.0,70,30.25,10.0,NNE,4.6,-,N/A,,Clear,30,2012-11-22 10:52:00
6:52 AM,36.0,28.9,76,30.26,10.0,North,5.8,-,N/A,,Clear,10,2012-11-22 11:52:00
7:52 AM,37.9,30.0,73,30.28,10.0,North,5.8,-,N/A,,Clear,10,2012-11-22 12:52:00
8:52 AM,43.0,32.0,65,30.28,10.0,Calm,Calm,-,N/A,,Clear,0,2012-11-22 13:52:00
9:52 AM,48.0,33.1,56,30.29,10.0,North,4.6,-,N/A,,Clear,10,2012-11-22 14:52:00
10:52 AM,53.1,30.0,41,30.29,10.0,ENE,3.5,-,N/A,,Clear,70,2012-11-22 15:52:00
11:52 AM,55.0,28.9,37,30.26,10.0,Variable,3.5,-,N/A,,Clear,0,2012-11-22 16:52:00
12:52 PM,57.0,27.0,32,30.24,10.0,Calm,Calm,-,N/A,,Clear,0,2012-11-22 17:52:00
1:52 PM,59.0,27.0,29,30.22,10.0,Calm,Calm,-,N/A,,Clear,0,2012-11-22 18:52:00
2:52 PM,59.0,26.1,28,30.20,10.0,Calm,Calm,-,N/A,,Clear,0,2012-11-22 19:52:00
3:52 PM,57.0,28.9,34,30.20,10.0,Calm,Calm,-,N/A,,Clear,0,2012-11-22 20:52:00
4:52 PM,55.0,28.9,37,30.19,10.0,Calm,Calm,-,N/A,,Clear,0,2012-11-22 21:52:00
5:52 PM,52.0,30.0,43,30.20,10.0,Calm,Calm,-,N/A,,Clear,0,2012-11-22 22:52:00
6:52 PM,48.9,41.0,74,30.19,10.0,Calm,Calm,-,N/A,,Clear,0,2012-11-22 23:52:00
7:52 PM,46.9,37.0,68,30.19,10.0,Calm,Calm,-,N/A,,Clear,0,2012-11-23 00:52:00
8:52 PM,46.0,34.0,63,30.19,10.0,SSW,3.5,-,N/A,,Clear,200,2012-11-23 01:52:00
9:52 PM,45.0,32.0,60,30.18,10.0,Calm,Calm,-,N/A,,Clear,0,2012-11-23 02:52:00
10:52 PM,43.0,34.0,71,30.17,10.0,Calm,Calm,-,N/A,,Clear,0,2012-11-23 03:52:00
11:52 PM,41.0,30.9,67,30.17,9.0,Calm,Calm,-,N/A,,Clear,0,2012-11-23 04:52:00